Location: Falconara Alta
(43.6167°N, 13.4000°E)
Time: 21:38:10
(UTC+00:00)

STARLINK-1214 - Pass Details

Date: 09 April 2020
Orbit: 376 x 383 km, 53.0° (Epoch: 26 May)

Event Time Altitude Azimuth Distance (km) Brightness Sun altitude
Rises 18:33:20 0° 308° (NW) 2,262 8.4 -9.5°
Reaches altitude 10° 18:35:31 10° 319° (NW) 1,407 6.8 -9.9°
Maximum altitude 18:38:23 32° 25° (NNE) 685 4.1 -10.4°
Enters shadow 18:40:34 15° 85° (E) 1,156 4.7 -10.8°
